Regional Weather Roundup
Issued by NWS Burlington, VT

Current Version | Previous Version | Graphics & Text | Print | Product List | Glossary Off
Versions: 1 2 3 4 5 6 7 8 9 10 11 12 13 14 15 16 17 18 19 20 21 22 23 24 25 26 27 28 29 30 31 32 33 34 35 36 37 38 39 40 41 42 43 44 45 46 47 48 49 50

518
ASUS41 KBTV 271110
RWRBTV
VERMONT REGIONAL WEATHER ROUNDUP
NATIONAL WEATHER SERVICE BURLINGTON VT
700 AM EDT THU JUL 27 2017

NOTE: "FAIR" INDICATES FEW OR NO CLOUDS BELOW 12,000 FEET WITH NO
SIGNIFICANT WEATHER AND/OR OBSTRUCTIONS TO VISIBILITY.

* THESE REPORTS ARE NOT UNDER NWS QUALITY CONTROL AND/OR DO NOT
  REPORT WEATHER SUCH AS PRECIPITATION AND FOG.

VTZ001>019-271200-
_____VERMONT_____


CITY           SKY/WX    TMP DP  RH WIND       PRES   REMARKS
BURLINGTON     CLOUDY    65  62  90 S12       29.93F
MONTPELIER     CLOUDY    62  61  96 S7        30.00F
MORRISVILLE    CLOUDY    61  59  93 CALM      29.97F
ST. JOHNSBURY*   N/A     62  61  96 MISG      29.95F
LYNDONVILLE*   CLOUDY    60  59  97 SE5       29.99F
MIDDLEBURY*    CLOUDY    63  60  91 S7        29.97F
RUTLAND*       CLOUDY    62  59  90 S5        29.99F
SPRINGFIELD    CLOUDY    61  59  93 CALM      30.00F
HIGHGATE*      DRIZZLE   64  63  99 S6        29.91F
NEWPORT*       CLOUDY    61  59  93 S8        29.96S
BENNINGTON     LGT RAIN  64  55  72 CALM      30.01F
SUTTON*          N/A     59 N/A N/A MISG        N/A

_____LAKE CHAMPLAIN_____


CITY           SKY/WX    TMP DP  RH WIND       PRES   REMARKS
BURTON ISLAND*   N/A     66  64  94 S14         N/A
COLCHESTER RF*   N/A     66  64  94 S24         N/A
DIAMOND ISL*     N/A     64  61  88 SE13        N/A

$$

NYZ007-026>031-035-052-083-087-271200-
_____NORTHERN NEW YORK_____


CITY           SKY/WX    TMP DP  RH WIND       PRES   REMARKS
PLATTSBURGH    CLOUDY    65  63  93 S3        29.91F
SARANAC LAKE   CLOUDY    61  61 100 SW6       29.95F
MASSENA        CLOUDY    66  65  96 SW7       29.90F
OGDENSBURG*    CLOUDY    66  65  94 SW5       29.90F
POTSDAM*       CLOUDY    66  66 100 SW8       29.91F
WATERTOWN      LGT RAIN  66  65  96 SW12      29.94R FOG
FT DRUM        LGT RAIN  68  61  77 SW10      29.93S
ALBANY         LGT RAIN  64  57  78 S8        30.00F
GLENS FALLS    CLOUDY    62  58  86 SW7       29.98F

$$
NHZ002-005-011-271200-
_____NEW HAMPSHIRE_____


CITY           SKY/WX    TMP DP  RH WIND       PRES   REMARKS
LEBANON        CLOUDY    63  62  97 CALM      29.98F
KEENE          CLOUDY    61  60  97 CALM      30.03F
MT WASHINGTON  CLOUDY    43  39  87 W36         N/A  VSB 3/4 WCI  31
PLYMOUTH       CLOUDY    60  59  96 CALM      29.99F
WHITEFIELD     CLOUDY    63  55  75 CALM      29.98F

$$

_____REGIONAL QUEBEC LOCATIONS_____


CITY           SKY/WX    TMP DP  RH WIND       PRES   REMARKS
MONTREAL       LGT RAIN  64  63  94 S10       29.88F
QUEBEC CITY    LGT RAIN  61  59  94 SW8       29.86S FOG
SHERBROOKE     CLOUDY    63  61  94 SW2       29.92F

_____REGIONAL ONTARIO LOCATIONS_____


CITY           SKY/WX    TMP DP  RH WIND       PRES   REMARKS
OTTAWA         PTSUNNY   64  63  94 W6        29.89S

______KEY______
VSB  - VISIBILITY IN MILES
WCI  - WIND CHILL INDEX
HX   - HEAT INDEX
$$
NNNN




USA.gov is the U.S. government's official web portal to all federal, state and local government web resources and services.